EXS6H EGNM-LEPA

Flight info

Callsign EXS6H
Flight time 2h 18m
Altitude 37000
Route POL DCT MCT DCT LISTO DCT HON UN859 SOPIL DCT BALAN DCT EVPOK DCT NARAK DCT GAI DCT LOMRA DCT ROCAN DCT IBRAP DCT LUKEV DCT LORES
Aircraft B738/M-SDE2E3FGHIRWXY/LB1

Departure

Time 2026-05-04 05:31
Airport Leeds Bradford Airport (EGNM)

Arrival

Time 2026-05-04 07:50
Airport Palma de Mallorca Airport (LEPA)
Time Latitude Longitude Altitude Speed Heading
2026-05-04 05:17 53.86874 -1.65279 664 ft 0 kts
2026-05-04 05:24 53.86873 -1.65279 664 ft 1 kts
2026-05-04 05:25 53.86852 -1.65279 663 ft 1 kts
2026-05-04 05:25 53.86831 -1.65276 661 ft 4 kts 314°
2026-05-04 05:25 53.86825 -1.65254 657 ft 4 kts 271°
2026-05-04 05:25 53.86825 -1.65299 659 ft 4 kts 271°
2026-05-04 05:26 53.86825 -1.65310 661 ft 2 kts 271°
2026-05-04 05:28 53.86236 -1.65463 679 ft 22 kts 176°
2026-05-04 05:29 53.86113 -1.65323 679 ft 22 kts 137°
2026-05-04 05:29 53.85990 -1.65133 671 ft 26 kts 138°
2026-05-04 05:29 53.85910 -1.64948 664 ft 11 kts 111°
2026-05-04 05:29 53.85879 -1.64949 663 ft 6 kts 269°
2026-05-04 05:31 53.88872 -1.69784 2526 ft 182 kts 313°
2026-05-04 05:31 53.89742 -1.71574 2852 ft 210 kts 306°
2026-05-04 05:32 53.90186 -1.74077 3037 ft 235 kts 264°
2026-05-04 05:32 53.89763 -1.76816 3527 ft 246 kts 254°
2026-05-04 05:32 53.89194 -1.79692 3878 ft 266 kts 247°
2026-05-04 05:33 53.87083 -1.84844 5563 ft 270 kts 231°
2026-05-04 05:33 53.85853 -1.87276 6394 ft 274 kts 230°
2026-05-04 05:33 53.84605 -1.89735 7188 ft 276 kts 230°
2026-05-04 05:33 53.83357 -1.92227 7991 ft 279 kts 231°
2026-05-04 05:34 53.82108 -1.94744 8782 ft 281 kts 231°
2026-05-04 05:34 53.80844 -1.97295 9572 ft 284 kts 231°
2026-05-04 05:34 53.79571 -1.99869 10314 ft 288 kts 231°
2026-05-04 05:34 53.78243 -2.02554 10567 ft 309 kts 231°
2026-05-04 05:35 53.76814 -2.05439 10757 ft 331 kts 231°
2026-05-04 05:35 53.75211 -2.08381 11072 ft 348 kts 221°
2026-05-04 05:35 53.73157 -2.10638 11608 ft 357 kts 206°
2026-05-04 05:35 53.70797 -2.11965 12379 ft 358 kts 195°
2026-05-04 05:36 53.68376 -2.12949 13232 ft 358 kts 194°
2026-05-04 05:36 53.65935 -2.13906 13863 ft 364 kts 194°
2026-05-04 05:36 53.63454 -2.14883 14447 ft 368 kts 194°
2026-05-04 05:36 53.60951 -2.15882 15075 ft 371 kts 194°
2026-05-04 05:37 53.58432 -2.16901 15696 ft 374 kts 194°
2026-05-04 05:37 53.55899 -2.17935 16308 ft 377 kts 194°
2026-05-04 05:37 53.53333 -2.18987 16914 ft 381 kts 194°
2026-05-04 05:38 53.48137 -2.21118 18085 ft 388 kts 194°
2026-05-04 05:38 53.45507 -2.22196 18631 ft 391 kts 193°
2026-05-04 05:38 53.42850 -2.23283 19132 ft 394 kts 193°
2026-05-04 05:38 53.40176 -2.24375 19625 ft 398 kts 193°
2026-05-04 05:39 53.37563 -2.25379 20097 ft 401 kts 189°
2026-05-04 05:39 53.31972 -2.25278 21054 ft 406 kts 169°
2026-05-04 05:39 53.29187 -2.24408 21556 ft 409 kts 168°
2026-05-04 05:40 53.23558 -2.22631 22502 ft 415 kts 169°
2026-05-04 05:40 53.20706 -2.21774 23009 ft 417 kts 169°
2026-05-04 05:40 53.17849 -2.20935 23509 ft 419 kts 169°
2026-05-04 05:41 53.14966 -2.20060 23879 ft 422 kts 166°
2026-05-04 05:41 53.12164 -2.18616 24211 ft 424 kts 157°
2026-05-04 05:41 53.09436 -2.16724 24586 ft 426 kts 156°
2026-05-04 05:41 53.06701 -2.14780 24947 ft 429 kts 155°
2026-05-04 05:42 53.03989 -2.12851 25302 ft 431 kts 156°
2026-05-04 05:42 53.01214 -2.10894 25634 ft 434 kts 156°
2026-05-04 05:42 52.98426 -2.08947 25980 ft 437 kts 156°
2026-05-04 05:42 52.95622 -2.07004 26393 ft 437 kts 156°
2026-05-04 05:43 52.92809 -2.05066 26751 ft 439 kts 156°
2026-05-04 05:43 52.89980 -2.03124 27051 ft 442 kts 156°
2026-05-04 05:43 52.87125 -2.01169 27352 ft 444 kts 158°
2026-05-04 05:45 52.66965 -1.87437 30046 ft 445 kts 158°
2026-05-04 05:45 52.64106 -1.85500 30372 ft 444 kts 158°
2026-05-04 05:47 52.44083 -1.72011 32496 ft 442 kts 158°
2026-05-04 05:47 52.41221 -1.70093 32676 ft 445 kts 158°
2026-05-04 05:47 52.38358 -1.68177 32968 ft 444 kts 158°
2026-05-04 05:48 52.35510 -1.66289 33358 ft 441 kts 160°
2026-05-04 05:48 52.32611 -1.64640 33601 ft 442 kts 162°
2026-05-04 05:48 52.29682 -1.63109 33892 ft 441 kts 163°
2026-05-04 05:48 52.26753 -1.61622 34133 ft 441 kts 163°
2026-05-04 05:49 52.23830 -1.60143 34395 ft 439 kts 163°
2026-05-04 05:49 52.20918 -1.58659 34608 ft 439 kts 163°
2026-05-04 05:49 52.17999 -1.57159 34774 ft 440 kts 163°
2026-05-04 05:49 52.15081 -1.55651 34933 ft 441 kts 163°
2026-05-04 05:51 51.91473 -1.43459 34971 ft 452 kts 163°
2026-05-04 05:52 51.85478 -1.40385 34966 ft 452 kts 164°
2026-05-04 05:52 51.79481 -1.37316 34966 ft 451 kts 164°
2026-05-04 05:54 51.56031 -1.25455 34969 ft 442 kts 164°
2026-05-04 05:55 51.50149 -1.22479 34973 ft 444 kts 164°
2026-05-04 05:55 51.44451 -1.18603 34972 ft 447 kts 156°
2026-05-04 05:56 51.38837 -1.14326 34967 ft 447 kts 157°
2026-05-04 05:56 51.33189 -1.10187 34975 ft 446 kts 158°
2026-05-04 05:57 51.27548 -1.06072 34964 ft 445 kts 158°
2026-05-04 05:57 51.21919 -1.01967 34968 ft 445 kts 158°
2026-05-04 05:58 51.16291 -0.97882 34969 ft 444 kts 158°
2026-05-04 05:58 51.10675 -0.93814 34953 ft 443 kts 159°
2026-05-04 05:59 51.05108 -0.89790 34965 ft 442 kts 159°
2026-05-04 05:59 50.99509 -0.85754 34977 ft 441 kts 159°
2026-05-04 06:00 50.93921 -0.81736 34970 ft 441 kts 159°
2026-05-04 06:00 50.88338 -0.77732 34975 ft 440 kts 159°
2026-05-04 06:01 50.82890 -0.73292 34979 ft 443 kts 151°
2026-05-04 06:03 50.62289 -0.52119 34981 ft 440 kts 151°
2026-05-04 06:05 50.39213 -0.28954 34977 ft 435 kts 152°
2026-05-04 06:06 50.34138 -0.23895 34971 ft 435 kts 152°
2026-05-04 06:06 50.29035 -0.18820 34975 ft 434 kts 152°
2026-05-04 06:07 50.23941 -0.13766 34975 ft 434 kts 152°
2026-05-04 06:07 50.18844 -0.08723 34976 ft 434 kts 152°
2026-05-04 06:08 50.13749 -0.03693 34981 ft 433 kts 152°
2026-05-04 06:08 50.08461 0.00633 34965 ft 425 kts 165°
2026-05-04 06:09 50.02782 0.02929 34976 ft 421 kts 170°
2026-05-04 06:11 49.80058 0.11730 34971 ft 421 kts 169°
2026-05-04 06:13 49.57373 0.20716 34964 ft 423 kts 169°
2026-05-04 06:14 49.37417 0.28768 34974 ft 424 kts 169°
2026-05-04 06:15 49.31698 0.31059 34969 ft 425 kts 169°
2026-05-04 06:15 49.25987 0.33417 34967 ft 425 kts 168°
2026-05-04 06:16 49.20285 0.35832 34970 ft 425 kts 168°
2026-05-04 06:16 49.15545 0.37833 34969 ft 425 kts 168°
2026-05-04 06:17 49.09832 0.40229 34968 ft 425 kts 168°
2026-05-04 06:17 49.04125 0.42612 34960 ft 425 kts 168°
2026-05-04 06:18 48.98420 0.44989 35176 ft 423 kts 168°
2026-05-04 06:18 48.95586 0.46169 35444 ft 422 kts 168°
2026-05-04 06:20 48.75572 0.54412 36460 ft 428 kts 168°
2026-05-04 06:20 48.72685 0.55537 36614 ft 429 kts 169°
2026-05-04 06:21 48.61091 0.60039 36959 ft 432 kts 168°
2026-05-04 06:22 48.55283 0.62301 36954 ft 429 kts 168°
2026-05-04 06:25 48.15391 0.78309 36954 ft 424 kts 168°
2026-05-04 06:26 48.09678 0.80550 36956 ft 425 kts 168°
2026-05-04 06:26 48.03958 0.82792 36949 ft 426 kts 168°
2026-05-04 06:27 47.89606 0.88401 36944 ft 427 kts 168°
2026-05-04 06:28 47.83861 0.90636 36944 ft 427 kts 168°
2026-05-04 06:28 47.78109 0.92865 36930 ft 427 kts 169°
2026-05-04 06:29 47.72399 0.95071 36938 ft 426 kts 169°
2026-05-04 06:29 47.66662 0.97284 36938 ft 426 kts 169°
2026-05-04 06:30 47.60932 0.99490 36931 ft 425 kts 169°
2026-05-04 06:30 47.55220 1.01684 36941 ft 424 kts 169°
2026-05-04 06:31 47.49510 1.03872 36945 ft 424 kts 169°
2026-05-04 06:31 47.43789 1.05982 36936 ft 422 kts 173°
2026-05-04 06:33 47.20553 1.05897 36943 ft 416 kts 183°
2026-05-04 06:34 47.14761 1.05770 36937 ft 416 kts 183°
2026-05-04 06:34 47.08976 1.05642 36946 ft 416 kts 183°
2026-05-04 06:36 46.85898 1.04778 36947 ft 416 kts 184°
2026-05-04 06:37 46.80112 1.04525 36947 ft 416 kts 184°
2026-05-04 06:37 46.74324 1.04275 36944 ft 416 kts 184°
2026-05-04 06:38 46.68527 1.04026 36951 ft 417 kts 184°
2026-05-04 06:40 46.48224 1.04309 36956 ft 423 kts 170°
2026-05-04 06:40 46.45358 1.05298 36957 ft 423 kts 170°
2026-05-04 06:40 46.39659 1.07264 36958 ft 424 kts 170°
2026-05-04 06:41 46.33911 1.09208 36940 ft 425 kts 171°
2026-05-04 06:41 46.28152 1.11133 36951 ft 425 kts 171°
2026-05-04 06:42 46.22400 1.13044 36960 ft 424 kts 171°
2026-05-04 06:44 45.99400 1.20645 36952 ft 423 kts 171°
2026-05-04 06:44 45.93673 1.22529 36965 ft 422 kts 171°
2026-05-04 06:45 45.87958 1.24404 36964 ft 421 kts 171°
2026-05-04 06:45 45.82252 1.26271 36964 ft 420 kts 171°
2026-05-04 06:46 45.76547 1.28135 36966 ft 420 kts 171°
2026-05-04 06:46 45.70850 1.29993 36966 ft 420 kts 171°
2026-05-04 06:48 45.48090 1.37376 36964 ft 421 kts 171°
2026-05-04 06:50 45.25208 1.44738 36966 ft 421 kts 171°
2026-05-04 06:51 45.19487 1.46570 36967 ft 421 kts 171°
2026-05-04 06:51 45.13771 1.48396 36961 ft 421 kts 171°
2026-05-04 06:52 45.08059 1.50218 36968 ft 421 kts 171°
2026-05-04 06:52 45.02349 1.52035 36968 ft 420 kts 171°
2026-05-04 06:53 44.96641 1.53848 36960 ft 420 kts 172°
2026-05-04 06:53 44.90938 1.55655 36968 ft 420 kts 172°
2026-05-04 06:54 44.85221 1.57463 36969 ft 421 kts 172°
2026-05-04 06:54 44.79491 1.59271 36969 ft 423 kts 172°
2026-05-04 06:55 44.73745 1.61081 36965 ft 424 kts 172°
2026-05-04 06:55 44.67989 1.62891 36967 ft 424 kts 172°
2026-05-04 06:57 44.45038 1.70071 36969 ft 423 kts 172°
2026-05-04 06:58 44.39257 1.71315 36955 ft 419 kts 178°
2026-05-04 06:58 44.33464 1.72052 36962 ft 418 kts 179°
2026-05-04 06:59 44.27672 1.72788 36961 ft 418 kts 179°
2026-05-04 06:59 44.21885 1.73570 36968 ft 418 kts 178°
2026-05-04 07:01 43.98748 1.76800 36950 ft 417 kts 179°
2026-05-04 07:02 43.92974 1.77603 36958 ft 417 kts 179°
2026-05-04 07:02 43.87233 1.78399 36966 ft 417 kts 179°
2026-05-04 07:03 43.81409 1.79205 36948 ft 418 kts 179°
2026-05-04 07:03 43.75668 1.79999 36962 ft 418 kts 179°
2026-05-04 07:04 43.69883 1.80797 36961 ft 418 kts 179°
2026-05-04 07:04 43.64097 1.81594 36961 ft 418 kts 179°
2026-05-04 07:05 43.58314 1.82389 36954 ft 418 kts 179°
2026-05-04 07:05 43.52540 1.83181 36958 ft 418 kts 179°
2026-05-04 07:06 43.43864 1.84368 36957 ft 418 kts 179°
2026-05-04 07:07 43.38067 1.85159 36946 ft 418 kts 179°
2026-05-04 07:09 43.15873 1.88175 36960 ft 420 kts 179°
2026-05-04 07:09 43.10055 1.88962 36953 ft 420 kts 179°
2026-05-04 07:10 43.04239 1.89747 36957 ft 420 kts 179°
2026-05-04 07:12 42.80991 1.92871 36968 ft 421 kts 180°
2026-05-04 07:12 42.75149 1.93652 36958 ft 422 kts 180°
2026-05-04 07:13 42.69305 1.94433 36950 ft 421 kts 180°
2026-05-04 07:13 42.63529 1.95920 36983 ft 426 kts 171°
2026-05-04 07:14 42.49299 2.01198 36982 ft 423 kts 172°
2026-05-04 07:15 42.43615 2.03239 36973 ft 423 kts 172°
2026-05-04 07:15 42.37922 2.05282 36961 ft 424 kts 172°
2026-05-04 07:16 42.32210 2.07320 36973 ft 425 kts 172°
2026-05-04 07:16 42.26486 2.09348 36981 ft 425 kts 172°
2026-05-04 07:17 42.20748 2.11380 36980 ft 426 kts 172°
2026-05-04 07:17 42.15012 2.13408 36972 ft 427 kts 172°
2026-05-04 07:18 42.09278 2.15433 36980 ft 428 kts 172°
2026-05-04 07:18 42.03432 2.17492 36991 ft 429 kts 172°
2026-05-04 07:19 41.97722 2.19500 36976 ft 430 kts 172°
2026-05-04 07:19 41.91906 2.21543 36986 ft 429 kts 173°
2026-05-04 07:20 41.86138 2.23565 36889 ft 428 kts 173°
2026-05-04 07:20 41.83260 2.24574 36572 ft 423 kts 173°
2026-05-04 07:20 41.80428 2.25567 36172 ft 418 kts 173°
2026-05-04 07:22 41.61349 2.32225 33525 ft 395 kts 173°
2026-05-04 07:22 41.58704 2.33145 33121 ft 392 kts 173°
2026-05-04 07:23 41.56076 2.34059 32737 ft 388 kts 173°
2026-05-04 07:23 41.53479 2.34961 32339 ft 385 kts 173°
2026-05-04 07:23 41.50896 2.35858 32000 ft 381 kts 173°
2026-05-04 07:23 41.48339 2.36745 31629 ft 378 kts 173°
2026-05-04 07:24 41.45807 2.37622 31271 ft 376 kts 173°
2026-05-04 07:24 41.43283 2.38495 30918 ft 373 kts 173°
2026-05-04 07:24 41.40785 2.39359 30568 ft 370 kts 173°
2026-05-04 07:24 41.38299 2.40218 30222 ft 368 kts 173°
2026-05-04 07:25 41.35829 2.41070 29816 ft 366 kts 173°
2026-05-04 07:26 41.18362 2.46797 26651 ft 396 kts 173°
2026-05-04 07:27 41.15636 2.47672 26184 ft 407 kts 173°
2026-05-04 07:27 41.12895 2.48568 25700 ft 403 kts 172°
2026-05-04 07:27 41.10184 2.49460 25223 ft 400 kts 172°
2026-05-04 07:27 41.07500 2.50344 24775 ft 396 kts 172°
2026-05-04 07:28 41.04838 2.51217 24338 ft 392 kts 172°
2026-05-04 07:28 41.02202 2.52078 23903 ft 389 kts 172°
2026-05-04 07:28 40.99579 2.52932 23450 ft 386 kts 172°
2026-05-04 07:28 40.96975 2.53778 22940 ft 384 kts 172°
2026-05-04 07:29 40.94394 2.54616 22488 ft 380 kts 172°
2026-05-04 07:29 40.91844 2.55442 22047 ft 376 kts 172°
2026-05-04 07:29 40.89313 2.56262 21610 ft 373 kts 172°
2026-05-04 07:29 40.86801 2.57075 21163 ft 370 kts 172°
2026-05-04 07:30 40.84313 2.57879 20749 ft 367 kts 172°
2026-05-04 07:30 40.81840 2.58677 20326 ft 365 kts 172°
2026-05-04 07:30 40.79384 2.59470 19906 ft 363 kts 172°
2026-05-04 07:30 40.76942 2.60256 19494 ft 361 kts 172°
2026-05-04 07:31 40.74508 2.61040 19085 ft 359 kts 172°
2026-05-04 07:31 40.72118 2.61809 18676 ft 358 kts 172°
2026-05-04 07:33 40.55450 2.67161 15706 ft 345 kts 171°
2026-05-04 07:33 40.53124 2.67905 15294 ft 344 kts 171°
2026-05-04 07:33 40.50804 2.68647 14900 ft 342 kts 170°
2026-05-04 07:33 40.48498 2.69384 14507 ft 340 kts 170°
2026-05-04 07:34 40.46205 2.70116 14107 ft 339 kts 170°
2026-05-04 07:34 40.43916 2.70847 13707 ft 338 kts 170°
2026-05-04 07:34 40.41631 2.71576 13258 ft 337 kts 169°
2026-05-04 07:34 40.39358 2.72300 12850 ft 335 kts 169°
2026-05-04 07:35 40.37098 2.73020 12442 ft 334 kts 169°
2026-05-04 07:35 40.34849 2.73736 12051 ft 332 kts 169°
2026-05-04 07:35 40.32611 2.74449 11659 ft 330 kts 169°
2026-05-04 07:35 40.30386 2.75156 11272 ft 328 kts 168°
2026-05-04 07:36 40.28172 2.75859 10884 ft 327 kts 168°
2026-05-04 07:36 40.26008 2.76548 10734 ft 312 kts 168°
2026-05-04 07:38 40.12420 2.80851 9735 ft 272 kts 169°
2026-05-04 07:38 40.10590 2.81430 9464 ft 270 kts 169°
2026-05-04 07:38 40.08767 2.82005 9187 ft 268 kts 168°
2026-05-04 07:38 40.06965 2.82621 8890 ft 270 kts 161°
2026-05-04 07:39 40.05200 2.83421 8665 ft 265 kts 167°
2026-05-04 07:39 40.03409 2.83966 8397 ft 264 kts 170°
2026-05-04 07:39 40.01619 2.84464 8137 ft 262 kts 170°
2026-05-04 07:39 39.99843 2.84965 7877 ft 261 kts 169°
2026-05-04 07:40 39.98072 2.85480 7614 ft 260 kts 169°
2026-05-04 07:40 39.96309 2.86004 7358 ft 259 kts 169°
2026-05-04 07:40 39.94561 2.86534 7095 ft 258 kts 169°
2026-05-04 07:40 39.92813 2.87069 6851 ft 257 kts 168°
2026-05-04 07:41 39.91072 2.87607 6594 ft 256 kts 168°
2026-05-04 07:41 39.89341 2.88148 6334 ft 256 kts 167°
2026-05-04 07:41 39.87653 2.88882 6121 ft 257 kts 161°
2026-05-04 07:41 39.85980 2.89732 5878 ft 259 kts 160°
2026-05-04 07:42 39.84322 2.90583 5636 ft 259 kts 160°
2026-05-04 07:42 39.82625 2.91445 5429 ft 255 kts 160°
2026-05-04 07:42 39.81009 2.92256 5386 ft 251 kts 161°
2026-05-04 07:42 39.79363 2.93076 5180 ft 256 kts 160°
2026-05-04 07:43 39.77691 2.93903 4961 ft 257 kts 161°
2026-05-04 07:43 39.76025 2.94723 4764 ft 254 kts 161°
2026-05-04 07:43 39.74525 2.95460 4570 ft 250 kts 161°
2026-05-04 07:43 39.73608 2.95909 4477 ft 249 kts 161°
2026-05-04 07:44 39.72114 2.96640 4350 ft 248 kts 162°
2026-05-04 07:44 39.70487 2.97435 4179 ft 251 kts 161°
2026-05-04 07:44 39.68865 2.98200 4029 ft 243 kts 167°
2026-05-04 07:44 39.67261 2.98206 3923 ft 225 kts 198°
2026-05-04 07:45 39.65906 2.97351 3725 ft 212 kts 217°
2026-05-04 07:45 39.64922 2.96001 3480 ft 202 kts 234°
2026-05-04 07:45 39.64182 2.94500 3245 ft 192 kts 237°
2026-05-04 07:45 39.63501 2.93042 2989 ft 186 kts 238°
2026-05-04 07:46 39.62838 2.91629 2735 ft 180 kts 237°
2026-05-04 07:46 39.62208 2.90294 2499 ft 167 kts 237°
2026-05-04 07:46 39.61627 2.89064 2293 ft 155 kts 237°
2026-05-04 07:46 39.61077 2.87901 2114 ft 152 kts 237°
2026-05-04 07:47 39.60524 2.86733 1897 ft 151 kts 238°
2026-05-04 07:47 39.59975 2.85570 1700 ft 151 kts 237°
2026-05-04 07:47 39.59429 2.84415 1498 ft 150 kts 238°
2026-05-04 07:49 39.55622 2.76341 114 ft 148 kts 238°
2026-05-04 07:49 39.55121 2.75275 29 ft 129 kts 238°
2026-05-04 07:49 39.54871 2.74731 29 ft 71 kts 244°
2026-05-04 07:50 39.54806 2.74362 29 ft 25 kts 268°
2026-05-04 07:50 39.54809 2.74183 29 ft 18 kts 286°
2026-05-04 07:50 39.54895 2.74074 29 ft 18 kts 329°
2026-05-04 07:50 39.54997 2.73995 29 ft 17 kts 328°
2026-05-04 07:51 39.55094 2.73918 29 ft 16 kts 328°
2026-05-04 07:51 39.55186 2.73845 29 ft 15 kts 328°
2026-05-04 07:51 39.55276 2.73775 29 ft 15 kts 329°
2026-05-04 07:51 39.55366 2.73704 29 ft 15 kts 329°
2026-05-04 07:52 39.55454 2.73635 29 ft 14 kts 329°
2026-05-04 07:52 39.55494 2.73547 29 ft 13 kts 242°
2026-05-04 07:52 39.55442 2.73437 29 ft 16 kts 238°
2026-05-04 07:52 39.55383 2.73316 29 ft 16 kts 238°
2026-05-04 07:53 39.55330 2.73202 29 ft 14 kts 239°
2026-05-04 07:54 39.55352 2.73090 29 ft 0 kts 175°